Time,TemperatureF,DewpointF,PressureIn,WindDirection,WindDirectionDegrees,WindSpeedMPH,WindSpeedGustMPH,Humidity,HourlyPrecipIn,Conditions,Clouds,dailyrainin,SoftwareType,DateUTC
2013-03-06 16:52:00,31.0,24.0,-100.00,North,10,13.0,19.0,75,-99.99,,,-99.99,,2013-03-06 22:52:00,
2013-03-06 17:01:00,31.0,24.0,-100.00,North,10,13.0,19.0,75,-99.99,,,-99.99,,2013-03-06 23:01:00,
2013-03-06 17:11:00,31.0,24.0,-100.00,North,10,11.0,19.0,76,-99.99,,,-99.99,,2013-03-06 23:11:00,
2013-03-06 17:21:00,30.0,24.0,-100.00,North,10,10.0,18.0,77,-99.99,,,-99.99,,2013-03-06 23:21:00,
2013-03-06 17:32:00,30.0,24.0,-100.00,North,10,10.0,18.0,77,-99.99,,,-99.99,,2013-03-06 23:32:00,
2013-03-06 17:42:00,30.0,24.0,-100.00,North,10,14.0,16.0,77,-99.99,,,-99.99,,2013-03-06 23:42:00,
2013-03-06 17:52:00,30.0,24.0,-100.00,North,10,11.0,16.0,77,-99.99,,,-99.99,,2013-03-06 23:52:00,
2013-03-06 18:01:00,30.0,24.0,-100.00,North,10,11.0,16.0,77,-99.99,,,-99.99,,2013-03-07 00:01:00,
2013-03-06 18:11:00,29.0,23.0,-100.00,North,10,10.0,16.0,77,-99.99,,,-99.99,,2013-03-07 00:11:00,
2013-03-06 18:21:00,29.0,23.0,-100.00,North,10,7.0,11.0,77,-99.99,,,-99.99,,2013-03-07 00:21:00,
2013-03-06 18:32:00,29.0,23.0,-100.00,North,10,7.0,11.0,78,-99.99,,,-99.99,,2013-03-07 00:32:00,
2013-03-06 18:42:00,29.0,23.0,-100.00,North,10,7.0,11.0,78,-99.99,,,-99.99,,2013-03-07 00:42:00,
2013-03-06 18:52:00,29.0,23.0,-100.00,North,10,4.0,9.0,78,-99.99,,,-99.99,,2013-03-07 00:52:00,
2013-03-06 19:01:00,29.0,23.0,-100.00,North,10,4.0,9.0,78,-99.99,,,-99.99,,2013-03-07 01:01:00,
2013-03-06 19:11:00,29.0,23.0,-100.00,North,10,5.0,7.0,78,-99.99,,,-99.99,,2013-03-07 01:11:00,
2013-03-06 19:21:00,29.0,23.0,-100.00,North,10,4.0,11.0,79,-99.99,,,-99.99,,2013-03-07 01:21:00,
2013-03-06 19:32:00,29.0,23.0,-100.00,North,10,4.0,11.0,79,-99.99,,,-99.99,,2013-03-07 01:32:00,
2013-03-06 19:42:00,29.0,23.0,-100.00,North,10,3.0,5.0,79,-99.99,,,-99.99,,2013-03-07 01:42:00,
2013-03-06 19:52:00,29.0,23.0,-100.00,North,10,6.0,9.0,79,-99.99,,,-99.99,,2013-03-07 01:52:00,
2013-03-06 20:01:00,29.0,23.0,-100.00,North,10,6.0,9.0,79,-99.99,,,-99.99,,2013-03-07 02:01:00,
2013-03-06 20:11:00,29.0,23.0,-100.00,North,10,5.0,8.0,79,-99.99,,,-99.99,,2013-03-07 02:11:00,
2013-03-06 20:21:00,28.0,22.0,-100.00,North,10,2.0,6.0,79,-99.99,,,-99.99,,2013-03-07 02:21:00,
2013-03-06 20:31:00,28.0,23.0,-100.00,North,10,1.0,7.0,80,-99.99,,,-99.99,,2013-03-07 02:31:00,
2013-03-06 20:32:00,28.0,22.0,-100.00,North,10,2.0,6.0,79,-99.99,,,-99.99,,2013-03-07 02:32:00,
2013-03-06 20:41:00,28.0,22.0,-100.00,North,10,2.0,6.0,79,-99.99,,,-99.99,,2013-03-07 02:41:00,
2013-03-06 21:02:00,28.0,23.0,-100.00,North,10,3.0,9.0,80,-99.99,,,-99.99,,2013-03-07 03:02:00,
2013-03-06 21:11:00,28.0,23.0,-100.00,North,10,1.0,7.0,80,-99.99,,,-99.99,,2013-03-07 03:11:00,
2013-03-06 21:21:00,28.0,23.0,-100.00,North,10,1.0,7.0,80,-99.99,,,-99.99,,2013-03-07 03:21:00,
2013-03-06 21:42:00,28.0,23.0,-100.00,North,10,4.0,7.0,80,-99.99,,,-99.99,,2013-03-07 03:42:00,
2013-03-06 21:52:00,28.0,23.0,-100.00,North,10,4.0,6.0,80,-99.99,,,-99.99,,2013-03-07 03:52:00,
2013-03-06 22:01:00,28.0,23.0,-100.00,North,10,4.0,6.0,80,-99.99,,,-99.99,,2013-03-07 04:01:00,
2013-03-06 22:11:00,28.0,23.0,-100.00,North,10,4.0,6.0,81,-99.99,,,-99.99,,2013-03-07 04:11:00,
2013-03-06 22:22:00,28.0,23.0,-100.00,North,10,1.0,4.0,81,-99.99,,,-99.99,,2013-03-07 04:22:00,
2013-03-06 22:32:00,28.0,23.0,-100.00,North,10,1.0,4.0,81,-99.99,,,-99.99,,2013-03-07 04:32:00,
2013-03-06 22:42:00,28.0,23.0,-100.00,North,10,4.0,5.0,81,-99.99,,,-99.99,,2013-03-07 04:42:00,
2013-03-06 22:52:00,28.0,23.0,-100.00,North,10,4.0,6.0,81,-99.99,,,-99.99,,2013-03-07 04:52:00,
2013-03-06 23:02:00,28.0,23.0,-100.00,North,10,4.0,6.0,81,-99.99,,,-99.99,,2013-03-07 05:02:00,
2013-03-06 23:12:00,28.0,23.0,-100.00,NNE,15,4.0,6.0,82,-99.99,,,-99.99,,2013-03-07 05:12:00,
2013-03-06 23:22:00,28.0,23.0,-100.00,NNE,15,4.0,7.0,82,-99.99,,,-99.99,,2013-03-07 05:22:00,
2013-03-06 23:32:00,27.0,23.0,-100.00,NNE,15,5.0,7.0,83,-99.99,,,-99.99,,2013-03-07 05:32:00,
2013-03-06 23:42:00,27.0,23.0,-100.00,NNE,15,5.0,7.0,83,-99.99,,,-99.99,,2013-03-07 05:42:00,
2013-03-06 23:52:00,27.0,23.0,-100.00,North,10,5.0,9.0,83,-99.99,,,-99.99,,2013-03-07 05:52:00,